This is the latest recevied weather packets stored in our database for station/object KK7ISX. If no packets are shown the sender has not sent any weather packets the latest 10 day(s).
| Time | Temp. | Humidity | Pressure | Rain* | Wind** | Luminosity | Snow |
|---|---|---|---|---|---|---|---|
| 1788150980 | 60° F | 45% | 762.4 mmHg | 0 in | - | 0 W/m² | - |
| 1788150675 | 60° F | 46% | 762.4 mmHg | 0 in | - | 0 W/m² | - |
| 1788150374 | 60° F | 46% | 762.2 mmHg | 0 in | - | 0 W/m² | - |
| 1788150069 | 60° F | 46% | 762.7 mmHg | 0 in | - | 0 W/m² | - |
| 1788149763 | 61° F | 44% | 762.4 mmHg | 0 in | - | 0 W/m² | - |
| 1788149463 | 61° F | 42% | 762.5 mmHg | 0 in | - | 0 W/m² | - |
| 1788149158 | 61° F | 44% | 762.3 mmHg | 0 in | - | 0 W/m² | - |
| 1788148857 | 62° F | 43% | 762.4 mmHg | 0 in | - | 0 W/m² | - |
| 1788148555 | 62° F | 42% | 762.4 mmHg | 0 in | - | 0 W/m² | - |
| 1788148251 | 63° F | 41% | 762.2 mmHg | 0 in | - | 0 W/m² | - |
| 1788147950 | 64° F | 40% | 762.2 mmHg | 0 in | - | 0 W/m² | - |
| 1788147646 | 63° F | 40% | 762.2 mmHg | 0 in | - | 0 W/m² | - |
| 1788147341 | 63° F | 38% | 762.1 mmHg | 0 in | - | 0 W/m² | - |
| 1788147036 | 64° F | 39% | 762.3 mmHg | 0 in | - | 0 W/m² | - |
| 1788146735 | 64° F | 37% | 762.1 mmHg | 0 in | - | 0 W/m² | - |
| 1788146431 | 65° F | 36% | 762.2 mmHg | 0 in | - | 0 W/m² | - |
| 1788146131 | 66° F | 35% | 762.1 mmHg | 0 in | - | 0 W/m² | - |
| 1788145830 | 68° F | 34% | 762.2 mmHg | 0 in | - | 0 W/m² | - |
| 1788145530 | 67° F | 31% | 762.1 mmHg | 0 in | - | 0 W/m² | - |
| 1788145229 | 65° F | 37% | 762 mmHg | 0 in | - | 0 W/m² | - |
| 1788144922 | 66° F | 36% | 762 mmHg | 0 in | - | 0 W/m² | - |
| 1788144617 | 67° F | 36% | 761.9 mmHg | 0 in | - | 0 W/m² | - |
| 1788144313 | 67° F | 35% | 761.8 mmHg | 0 in | - | 0 W/m² | - |
| 1788144012 | 68° F | 34% | 762 mmHg | 0 in | - | 0 W/m² | - |
| 1788143710 | 68° F | 34% | 761.8 mmHg | 0 in | - | 1 W/m² | - |
* Rain latest hour (hover to see other rain measurements)
** Current wind speed in m/s (hover to see current wind gust speed)